SCP
0 0 0 0 1 0 0 0 0 0 0 0 0 1 1 2 2 1 2 2 2 2 1 1 1 1 1 1 2 3 3 3 3 3 2 2 3 3 3 2 2 2 2 2 2 2 1 1 1
0 0 0 0 0 0 0 0 0 0 0 0 1 1 2 2 2 2 2 2 2 2 1 1 1 2 1 1 2 3 3 3 3 2 2 2 2 3 3 3 3 2 2 2 2 2 1 1 1
0 0 0 0 0 0 0 0 0 0 0 0 1 1 1 1 1 1 2 2 2 2 2 2 2 2 1 1 1 2 2 2 2 2 2 2 2 2 3 3 3 2 2 2 2 2 1 1 2
0 0 0 0 0 0 0 0 0 0 0 1 1 1 1 1 1 1 2 2 2 2 2 2 2 1 1 1 1 2 2 2 2 2 1 1 1 2 3 3 3 2 2 2 2 2 2 1 2
0 0 0 0 0 0 0 0 0 0 1 1 1 1 1 0 1 1 1 1 2 2 2 1 1 1 1 1 1 2 2 2 2 1 1 1 1 2 2 3 3 2 2 2 2 2 1 2 2
0 0 0 0 0 0 0 0 0 0 1 1 1 1 1 1 1 1 1 1 1 1 1 1 1 1 1 1 1 2 2 2 2 1 1 1 1 1 2 2 2 2 3 2 2 1 2 2 2
0 0 0 0 0 0 0 0 0 0 0 0 1 1 1 1 2 1 1 1 1 1 1 1 1 1 1 1 1 1 2 2 2 1 1 1 1 1 1 2 2 2 3 3 2 2 2 2 2
0 0 0 0 0 0 0 0 0 0 0 0 0 0 1 1 2 2 1 1 1 2 2 1 1 1 1 1 1 1 1 2 2 1 1 1 1 1 1 2 2 2 3 2 2 2 2 2 2
0 0 0 0 0 0 0 0 0 0 0 0 0 0 1 2 2 2 2 1 1 1 1 1 1 1 1 1 1 1 1 1 1 1 1 1 1 1 1 1 2 2 3 2 2 1 1 2 2
0 0 0 0 0 0 0 0 0 0 0 0 0 1 2 3 3 2 2 1 1 1 1 1 1 1 1 1 1 1 1 1 1 1 1 1 1 1 1 1 2 2 2 2 1 1 1 1 1
0 0 0 0 0 0 0 0 0 0 0 0 0 2 3 3 3 2 2 1 1 1 1 1 1 1 1 1 1 1 1 1 1 1 1 1 1 1 0 1 2 2 2 2 2 1 1 1 1
0 0 0 0 0 0 0 0 0 0 0 0 1 2 4 4 3 2 2 1 1 1 1 1 1 1 1 1 1 1 1 1 1 1 1 1 1 1 0 1 1 2 2 2 2 2 1 1 1
0 0 0 0 0 0 0 0 0 0 0 0 1 3 4 4 4 3 2 2 1 1 1 1 0 1 1 1 1 1 1 1 1 1 1 1 1 1 0 0 1 1 2 2 2 2 1 1 1
0 0 0 0 0 0 0 0 0 0 0 0 1 3 4 5 4 3 2 2 1 1 1 1 0 0 1 1 1 1 1 1 1 1 1 1 1 1 0 0 0 1 1 2 2 2 1 1 1
0 0 0 0 0 0 0 0 0 0 0 0 1 3 4 5 4 3 2 2 2 1 1 1 0 0 0 0 1 1 1 1 1 1 1 1 1 1 0 0 0 1 1 1 1 1 1 1 1
0 0 0 0 0 0 0 0 0 0 0 0 1 3 4 4 4 3 2 2 2 1 1 1 0 0 0 0 0 1 1 1 1 1 1 1 1 1 1 0 0 1 1 0 0 1 1 1 1
0 0 0 0 0 0 0 0 0 0 0 0 1 3 4 4 4 3 2 2 1 1 1 1 1 0 0 0 0 0 1 1 1 1 1 1 1 1 1 0 0 0 0 0 0 1 1 1 1
0 0 0 0 0 0 0 0 0 0 0 0 1 3 4 4 4 3 2 2 1 1 1 1 1 0 0 0 0 0 1 1 1 1 1 1 1 1 1 0 0 0 0 0 0 0 1 1 1
0 0 0 0 0 0 0 0 0 0 0 1 2 3 4 4 4 3 2 2 1 1 1 1 1 0 0 0 0 1 1 1 1 1 1 1 1 1 0 0 0 0 0 0 0 0 0 1 1
0 0 0 0 0 0 0 0 0 0 0 1 2 3 4 4 3 3 2 2 1 1 1 1 1 0 0 0 0 1 1 1 1 1 1 1 1 1 0 0 0 0 0 0 0 0 0 0 1
0 0 0 0 0 0 0 0 0 0 1 2 3 4 4 3 3 3 2 1 1 1 1 1 1 0 0 0 0 1 1 1 1 1 1 1 1 1 0 0 0 0 0 0 0 0 0 0 1
0 0 0 0 0 0 0 0 1 1 2 3 3 3 3 3 3 2 2 1 1 1 1 1 1 0 0 0 0 1 1 1 1 1 1 1 1 1 0 0 0 0 0 0 0 0 0 0 0
0 0 0 0 0 0 0 0 1 2 2 2 2 2 2 2 2 2 2 1 1 1 1 1 1 0 0 0 0 1 1 1 1 1 1 1 1 1 0 0 0 0 0 0 0 0 0 0 0
0 0 0 0 0 0 0 0 1 2 2 1 1 0 1 1 1 1 1 1 1 1 1 1 1 0 0 0 0 0 1 1 1 1 1 1 1 0 0 0 0 0 0 0 0 0 0 0 0
0 0 0 0 0 0 0 0 1 2 1 1 0 0 0 0 0 0 0 1 1 1 1 1 1 0 0 0 0 0 0 0 1 1 1 0 0 0 0 0 0 0 0 0 0 0 0 0 0
0 0 0 0 0 0 0 0 0 1 0 0 0 0 0 0 0 0 0 0 0 0 1 1 1 1 0 0 0 0 0 0 0 0 0 0 0 0 0 0 0 0 0 0 0 0 0 0 0
0 0 0 0 0 0 0 0 0 0 0 0 0 0 0 0 0 0 0 0 0 0 0 0 1 1 0 0 0 0 0 0 0 0 0 0 0 0 0 0 0 0 0 0 0 0 0 0 0
0 0 0 0 0 0 0 0 0 0 0 0 0 0 0 0 0 0 0 0 0 0 0 0 0 0 0 0 0 0 0 0 0 0 0 0 0 0 0 0 0 0 0 0 0 0 0 0 0
0 0 0 0 0 0 0 0 0 0 0 0 0 0 0 0 0 0 0 0 0 0 0 0 0 0 0 0 0 0 0 0 0 0 0 0 0 0 0 0 0 0 0 0 0 0 0 1 1
0 0 0 0 0 0 0 0 0 0 0 0 0 0 0 0 0 0 0 0 0 0 0 0 0 0 0 0 0 0 0 0 0 0 0 0 0 0 0 0 0 0 0 0 0 0 1 1 1
Wind_Speed
10 6 2 4 6 5 2 3 1 0 0 1 1 4 6 4 3 3 2 2 4 4 2 3 5 6 5 5 5 5 5 5 5 5 6 6 6 6 7 6 6 6 6 6 7 7 7 6 6
4 3 5 5 5 2 4 3 2 2 2 0 3 4 5 3 2 4 2 2 5 4 3 3 5 5 6 5 5 5 5 4 5 5 5 6 5 5 5 6 6 6 6 6 7 7 6 6 6
4 2 4 4 4 5 5 3 4 2 1 2 3 4 4 2 2 2 2 4 5 4 3 3 5 5 5 6 5 4 5 5 4 4 5 5 5 5 5 5 5 5 5 6 6 6 5 5 5
3 4 5 4 3 4 4 2 2 1 2 4 3 4 3 2 1 2 4 6 6 4 3 3 5 5 5 5 5 4 4 4 4 4 4 4 4 4 4 4 4 4 5 5 5 5 4 4 4
4 4 4 1 3 2 2 1 2 2 1 2 3 3 2 3 2 4 5 6 5 3 2 2 4 4 4 4 4 4 4 4 4 4 3 3 3 3 3 4 3 3 4 4 4 4 4 3 3
4 4 4 3 4 2 2 1 1 2 1 1 3 3 1 1 3 3 4 4 4 3 2 2 4 5 4 4 4 4 4 4 4 4 4 3 3 2 2 3 3 2 3 3 3 3 3 3 3
4 4 4 4 3 2 2 0 2 2 1 1 2 4 1 1 1 2 3 3 3 3 3 2 2 3 3 4 4 4 4 4 4 4 4 5 4 2 2 2 2 1 2 2 2 2 2 3 3
4 4 2 2 3 3 1 1 1 1 1 1 3 5 3 3 1 2 3 3 2 2 3 2 2 2 2 2 3 4 4 3 3 4 4 5 4 3 2 2 1 1 1 1 2 2 2 3 3
3 4 3 3 4 2 1 1 2 1 1 2 1 2 3 3 2 3 2 2 1 1 1 2 2 2 2 2 3 4 4 3 3 2 3 4 2 2 2 2 1 1 1 1 1 2 3 3 4
4 3 4 2 2 2 0 0 1 2 1 1 1 1 2 4 3 3 2 1 1 1 1 1 1 1 1 2 2 1 2 2 1 1 1 1 1 2 3 2 1 1 1 1 2 2 3 3 2
3 4 2 1 1 1 1 1 1 1 2 4 4 3 3 2 2 2 2 2 3 2 2 1 1 0 0 0 1 1 1 1 1 1 1 1 1 1 2 1 1 1 1 1 1 2 1 1 1
1 1 1 2 2 1 1 1 1 3 5 4 4 5 4 3 3 3 3 3 2 2 2 1 1 1 0 0 0 0 0 1 1 1 1 1 1 1 1 1 1 1 1 1 1 1 1 2 2
1 1 2 2 2 2 2 3 3 5 5 2 2 3 3 3 3 3 3 3 2 2 2 2 1 1 1 1 0 0 0 1 1 0 0 0 0 1 1 1 1 1 1 1 1 1 1 2 2
1 1 2 3 2 2 2 4 2 6 3 1 2 4 4 4 4 3 2 2 2 3 3 2 2 2 1 1 1 1 1 1 1 0 1 0 0 1 1 1 2 1 1 1 1 1 1 1 1
1 1 3 3 2 2 0 5 6 6 2 2 3 3 3 3 3 3 3 3 3 3 3 2 2 1 1 1 2 1 1 1 1 1 1 0 0 1 1 1 1 2 1 1 1 1 1 1 2
2 1 3 4 2 2 2 7 7 4 4 4 4 3 3 3 3 4 3 3 3 2 2 2 1 1 2 2 2 1 1 1 2 1 1 1 1 1 1 1 1 2 1 1 1 1 1 1 2
1 1 4 5 3 1 3 8 6 3 4 5 5 4 4 3 3 3 3 3 2 2 2 2 2 2 2 2 1 1 1 1 2 1 1 1 1 1 0 1 2 1 1 1 1 1 1 1 2
3 3 4 5 3 2 5 9 8 5 5 6 5 4 4 4 6 4 3 2 2 2 2 2 2 2 2 1 1 0 0 1 1 1 1 1 1 1 1 1 1 1 0 0 1 1 1 1 2
3 4 5 6 3 3 7 10 10 6 5 6 5 5 5 6 5 3 2 2 2 1 1 2 2 2 1 1 1 1 1 1 1 1 2 1 1 1 1 1 1 1 1 1 1 1 1 1 1
4 4 5 5 3 4 6 10 8 5 5 6 6 6 6 5 3 3 2 2 2 2 2 2 1 1 2 1 1 1 1 1 2 2 1 1 1 2 1 1 1 1 1 1 1 1 1 1 1
4 5 5 5 5 3 3 7 5 4 3 3 4 5 5 5 5 4 3 3 3 3 3 2 1 1 1 1 0 0 1 1 1 1 1 1 2 2 2 2 2 1 1 2 2 1 2 1 1
5 4 4 3 2 4 0 5 6 3 3 3 4 3 4 5 4 4 4 4 3 4 3 2 2 2 1 1 1 2 1 2 3 2 2 2 2 2 2 2 2 2 2 2 2 2 2 2 2
4 3 2 2 2 3 1 3 8 2 3 5 5 4 5 5 5 5 5 5 3 3 2 2 2 2 2 2 2 2 2 2 2 2 2 2 2 2 2 2 2 2 2 2 2 2 2 2 2
2 2 2 3 2 3 4 4 7 3 5 4 4 4 4 4 3 4 3 2 2 2 1 1 2 2 1 2 2 2 3 2 2 3 3 2 2 2 3 2 2 2 2 3 3 3 3 3 3
2 3 3 4 2 6 2 3 9 5 4 5 5 4 4 3 2 2 2 1 1 2 1 1 2 2 2 2 2 3 3 3 4 4 3 3 2 2 3 3 2 2 3 3 3 3 3 3 3
2 4 4 4 4 5 2 5 7 3 3 3 3 2 2 2 2 2 2 2 2 2 2 2 3 2 2 2 3 3 3 3 3 3 3 3 3 3 3 3 3 3 3 3 3 3 3 3 3
3 2 3 3 1 4 5 6 7 2 3 2 1 1 2 2 2 2 2 2 2 2 3 3 3 2 3 3 2 3 3 3 3 3 3 3 3 3 3 3 3 3 3 3 3 3 3 3 3
2 3 3 2 1 4 5 5 5 4 4 3 2 3 3 3 3 2 2 2 2 2 3 2 2 3 3 3 2 2 3 3 3 3 3 3 3 3 3 3 3 3 3 3 3 3 3 3 4
3 2 2 2 3 3 4 7 5 5 4 4 4 3 3 3 3 2 2 2 2 2 2 2 2 2 2 2 2 2 2 2 2 3 3 3 3 3 3 3 3 3 3 3 3 3 3 4 4
4 4 5 3 3 3 3 9 4 3 3 3 3 3 3 3 3 2 2 2 2 2 2 2 2 2 3 2 2 2 2 2 2 3 3 3 3 3 3 3 3 3 3 3 3 4 3 4 4
Wind_Direction
332 335 33 56 59 59 223 250 231 296 346 301 33 91 102 94 115 151 172 107 109 117 108 102 76 63 58 68 65 64 64 63 64 63 63 63 62 62 62 66 69 69 68 68 67 68 68 65 67
330 352 49 62 96 137 248 239 215 233 207 118 50 81 84 81 80 107 103 114 110 107 94 83 71 62 55 54 65 64 60 63 64 62 63 61 60 62 61 65 69 67 65 64 60 60 65 63 60
335 49 80 83 130 180 206 208 200 244 338 51 44 50 88 103 97 128 158 132 99 84 73 72 71 61 54 51 52 62 61 57 59 62 63 60 56 55 61 68 71 69 68 65 60 55 58 60 55
46 49 60 86 191 220 201 213 203 152 20 40 78 62 57 18 145 162 129 110 97 80 68 71 70 63 54 50 49 53 59 54 51 56 61 59 53 52 54 59 69 75 71 67 61 56 52 47 45
60 78 82 111 221 237 229 232 163 123 75 19 80 96 74 348 53 104 102 99 101 90 75 71 62 56 51 44 46 43 50 51 46 44 50 58 54 44 49 59 65 79 77 69 60 54 44 38 33
58 74 111 200 215 238 273 285 119 95 93 30 87 111 151 340 80 97 100 105 114 109 88 75 58 47 35 31 32 31 35 42 40 40 34 37 46 34 51 60 52 77 83 72 61 48 36 24 13
102 108 166 188 190 229 254 335 125 132 110 247 131 121 170 276 175 120 112 109 110 111 91 58 47 43 33 22 16 18 17 32 33 33 27 23 17 24 39 48 40 55 82 70 59 44 26 11 1
120 109 152 189 182 222 283 46 87 137 197 289 108 138 193 228 212 119 104 93 87 92 93 70 43 32 21 11 14 10 6 15 28 22 19 17 15 3 4 12 11 30 51 58 39 25 6 356 351
85 87 189 204 186 215 330 62 347 337 88 31 46 166 197 161 131 108 94 71 62 55 76 96 61 31 18 9 12 6 358 348 10 17 16 21 2 345 337 343 356 10 27 35 29 13 6 356 348
84 146 214 226 179 191 259 83 315 27 17 355 353 341 130 129 131 139 148 162 187 248 277 129 122 70 27 14 18 357 357 330 327 343 4 10 0 342 355 342 347 354 1 6 7 1 10 4 344
118 177 213 264 221 177 221 303 323 144 240 224 218 212 167 151 153 185 207 202 210 222 233 216 176 148 92 40 14 355 1 333 322 346 4 17 12 351 359 349 342 337 352 359 343 353 354 348 332
122 237 212 247 301 277 219 227 283 216 231 233 203 181 172 181 201 210 218 224 223 216 230 227 194 176 178 191 271 231 359 324 313 328 1 47 4 348 344 344 339 352 334 326 349 337 327 326 314
165 260 281 284 309 273 250 237 231 247 245 246 181 169 193 206 221 227 223 222 220 225 234 244 217 199 193 173 242 15 223 271 273 300 303 117 93 325 321 321 322 316 324 317 318 321 308 312 307
214 246 286 285 284 270 239 267 235 254 228 217 190 200 211 217 220 226 232 229 231 236 238 241 238 220 183 181 224 230 224 257 265 216 274 299 237 270 283 307 308 292 288 281 273 278 283 286 295
57 9 317 276 248 245 201 288 239 239 203 222 222 208 215 227 225 229 231 227 227 229 228 236 237 232 209 212 224 226 225 250 254 242 246 293 272 251 254 261 293 279 283 291 292 294 291 301 307
49 44 300 276 219 223 171 261 259 229 191 224 226 212 220 237 234 238 234 228 226 225 232 238 247 248 236 221 218 221 220 254 255 243 253 267 268 262 270 265 278 278 282 294 296 289 295 303 303
33 273 256 275 231 191 204 254 265 241 205 228 225 215 222 244 253 252 242 228 227 225 233 238 232 223 243 235 215 210 208 242 250 244 249 270 267 259 268 281 284 287 263 281 298 314 268 285 303
227 241 249 251 249 230 246 258 269 259 229 230 225 223 228 234 244 244 240 228 228 229 233 223 231 229 224 228 197 151 226 254 249 239 240 241 254 262 250 279 304 299 280 312 301 294 298 266 275
218 227 256 257 259 252 249 263 271 262 240 228 229 230 236 242 251 241 227 219 218 238 240 228 222 231 206 211 179 163 239 257 265 251 243 234 251 257 249 273 295 299 268 261 263 270 296 300 301
244 254 263 283 276 258 271 274 270 254 232 216 219 226 234 245 266 259 247 231 226 228 231 229 220 227 209 204 201 191 209 238 246 254 257 242 238 237 249 242 247 243 254 280 290 278 262 294 326
249 227 239 266 313 309 314 301 273 267 237 231 224 225 228 225 232 243 238 232 235 239 234 234 228 249 234 212 179 99 36 345 319 283 267 254 237 228 228 232 231 230 232 234 242 238 225 251 288
257 237 237 258 310 286 220 288 281 270 275 264 257 251 242 242 235 234 233 234 233 240 237 227 225 234 238 201 183 182 202 239 253 247 249 273 259 243 232 225 225 229 228 237 243 238 237 222 247
238 269 261 250 214 290 267 236 282 286 272 268 259 258 257 248 235 235 231 228 235 237 229 225 230 243 237 209 197 195 218 244 258 259 256 266 266 256 247 236 227 230 233 233 233 238 242 230 229
261 1 26 42 72 274 231 197 274 244 234 261 258 258 263 259 249 248 246 235 239 238 223 214 223 251 239 214 207 213 221 238 249 251 247 257 264 265 255 246 236 235 235 234 235 231 235 241 236
68 80 24 356 338 256 231 204 253 247 237 230 239 252 262 256 246 256 262 253 259 256 240 229 223 252 253 236 237 238 232 226 231 241 240 243 254 267 260 256 245 245 242 236 229 227 235 236 236
201 148 161 210 240 281 302 235 253 261 271 256 246 246 267 270 266 266 260 248 251 261 256 238 231 245 242 235 247 249 239 237 240 237 239 240 243 249 253 243 244 252 252 248 232 226 233 233 234
163 193 182 157 256 277 268 274 295 280 318 315 314 328 287 272 278 282 285 277 260 257 258 247 236 244 249 249 256 257 240 241 252 253 249 248 248 254 254 243 244 246 248 243 233 231 232 232 236
165 153 109 136 213 269 280 267 260 275 284 304 316 305 294 283 288 292 296 288 283 270 270 261 233 233 242 245 245 260 255 248 248 249 249 250 253 255 259 252 248 248 252 249 239 241 236 232 244
167 162 159 169 190 204 273 271 239 243 252 264 276 287 288 281 279 289 302 305 296 297 283 272 258 257 252 248 254 259 269 271 258 246 246 246 246 246 251 249 246 246 253 255 246 246 238 234 245
187 183 160 172 236 210 235 269 273 258 268 263 283 303 311 306 291 291 302 310 308 302 295 288 277 266 262 253 251 253 263 266 263 251 248 248 245 246 248 244 247 247 251 253 250 251 248 239 240